TimeAKST,TemperatureF,Dew PointF,Humidity,Sea Level PressureIn,VisibilityMPH,Wind Direction,Wind SpeedMPH,Gust SpeedMPH,PrecipitationIn,Events,Conditions,WindDirDegrees,DateUTC
12:53 AM,10.0,3.9,76,30.50,10.0,ESE,4.6,-,N/A,,Clear,120,2013-03-04 09:53:00
1:53 AM,12.0,5.0,73,30.50,10.0,ESE,8.1,-,N/A,,Clear,110,2013-03-04 10:53:00
2:53 AM,8.1,3.9,83,30.51,10.0,ESE,4.6,-,N/A,,Clear,110,2013-03-04 11:53:00
3:53 AM,9.0,3.9,80,30.52,10.0,SE,5.8,-,N/A,,Clear,130,2013-03-04 12:53:00
4:53 AM,7.0,1.9,80,30.53,10.0,ESE,6.9,-,N/A,,Clear,120,2013-03-04 13:53:00
5:53 AM,6.1,1.9,83,30.54,10.0,SE,8.1,-,N/A,,Clear,130,2013-03-04 14:53:00
6:53 AM,10.0,3.9,76,30.53,10.0,ESE,11.5,-,N/A,,Partly Cloudy,120,2013-03-04 15:53:00
7:53 AM,7.0,1.9,80,30.54,10.0,ESE,9.2,-,N/A,,Partly Cloudy,110,2013-03-04 16:53:00
8:53 AM,8.1,3.0,80,30.54,10.0,ESE,12.7,-,N/A,,Partly Cloudy,120,2013-03-04 17:53:00
9:53 AM,10.0,3.9,76,30.54,10.0,ESE,8.1,-,N/A,,Partly Cloudy,110,2013-03-04 18:53:00
10:53 AM,16.0,6.1,65,30.52,10.0,East,10.4,-,N/A,,Partly Cloudy,100,2013-03-04 19:53:00
11:53 AM,21.0,8.1,57,30.51,10.0,East,10.4,-,N/A,,Partly Cloudy,100,2013-03-04 20:53:00
12:53 PM,21.9,8.1,55,30.50,10.0,ESE,8.1,-,N/A,,Partly Cloudy,120,2013-03-04 21:53:00
1:53 PM,25.0,9.0,51,30.48,10.0,East,6.9,-,0.01,,Partly Cloudy,90,2013-03-04 22:53:00
2:53 PM,27.0,9.0,47,30.46,10.0,ESE,6.9,-,N/A,,Partly Cloudy,110,2013-03-04 23:53:00
3:53 PM,28.0,10.0,47,30.45,10.0,ESE,6.9,-,N/A,,Partly Cloudy,110,2013-03-05 00:53:00
4:53 PM,28.0,10.0,47,30.44,10.0,East,4.6,-,N/A,,Partly Cloudy,100,2013-03-05 01:53:00
5:53 PM,25.0,9.0,51,30.43,10.0,ENE,3.5,-,N/A,,Scattered Clouds,70,2013-03-05 02:53:00
6:53 PM,25.0,10.0,53,30.42,10.0,ESE,3.5,-,N/A,,Scattered Clouds,110,2013-03-05 03:53:00
7:53 PM,21.9,9.0,58,30.43,10.0,SE,6.9,-,N/A,,Partly Cloudy,140,2013-03-05 04:53:00
8:53 PM,21.9,9.0,58,30.41,10.0,SE,8.1,-,N/A,,Partly Cloudy,140,2013-03-05 05:53:00
9:53 PM,16.0,7.0,68,30.40,10.0,ESE,3.5,-,N/A,,Clear,110,2013-03-05 06:53:00
10:53 PM,14.0,6.1,71,30.39,10.0,East,4.6,-,N/A,,Clear,100,2013-03-05 07:53:00
11:53 PM,10.9,3.9,73,30.38,10.0,ESE,5.8,-,N/A,,Clear,120,2013-03-05 08:53:00